QPF
0.00 0.00 0.00 0.00 0.00 0.00 0.00 0.00 0.00 0.00 0.00 0.00 0.00 0.00 0.00 0.00 0.00 0.00 0.00 0.00 0.00 0.00 0.00 0.00 0.00 0.00 0.00 0.00 0.00 0.00 0.00 0.00
0.00 0.00 0.00 0.00 0.00 0.00 0.00 0.00 0.00 0.00 0.00 0.00 0.00 0.00 0.00 0.00 0.00 0.00 0.00 0.00 0.00 0.00 0.00 0.00 0.00 0.00 0.00 0.00 0.00 0.00 0.00 0.00
0.00 0.00 0.00 0.00 0.00 0.00 0.00 0.00 0.00 0.00 0.00 0.00 0.00 0.00 0.00 0.00 0.00 0.00 0.00 0.00 0.00 0.00 0.00 0.00 0.00 0.00 0.00 0.00 0.00 0.00 0.00 0.00
0.00 0.00 0.00 0.00 0.00 0.00 0.00 0.00 0.00 0.00 0.00 0.00 0.00 0.00 0.00 0.00 0.00 0.00 0.00 0.00 0.00 0.00 0.00 0.00 0.00 0.00 0.00 0.00 0.00 0.00 0.00 0.00
0.00 0.00 0.00 0.00 0.00 0.00 0.00 0.00 0.00 0.00 0.00 0.00 0.00 0.00 0.00 0.00 0.00 0.00 0.00 0.00 0.00 0.00 0.00 0.00 0.00 0.00 0.00 0.00 0.00 0.00 0.00 0.00
0.00 0.00 0.00 0.00 0.00 0.00 0.00 0.00 0.00 0.00 0.00 0.00 0.00 0.00 0.00 0.00 0.00 0.00 0.00 0.00 0.00 0.00 0.00 0.00 0.00 0.00 0.00 0.00 0.00 0.00 0.00 0.00
0.00 0.00 0.00 0.00 0.00 0.00 0.00 0.00 0.00 0.00 0.00 0.00 0.00 0.00 0.00 0.00 0.00 0.00 0.00 0.00 0.00 0.00 0.00 0.00 0.00 0.00 0.00 0.00 0.00 0.00 0.00 0.00
0.00 0.00 0.00 0.00 0.00 0.00 0.00 0.00 0.00 0.00 0.00 0.00 0.00 0.00 0.00 0.00 0.00 0.00 0.00 0.00 0.00 0.00 0.00 0.00 0.00 0.00 0.00 0.00 0.00 0.00 0.00 0.00
0.00 0.00 0.00 0.00 0.00 0.00 0.00 0.00 0.00 0.00 0.00 0.00 0.00 0.00 0.00 0.00 0.00 0.00 0.00 0.00 0.00 0.00 0.00 0.00 0.00 0.00 0.00 0.00 0.00 0.00 0.00 0.00
0.00 0.00 0.00 0.00 0.00 0.00 0.00 0.00 0.00 0.00 0.00 0.00 0.00 0.00 0.00 0.00 0.00 0.00 0.00 0.00 0.00 0.00 0.00 0.00 0.00 0.00 0.00 0.00 0.00 0.00 0.00 0.00
0.00 0.00 0.00 0.00 0.00 0.00 0.00 0.00 0.00 0.00 0.00 0.00 0.00 0.00 0.00 0.00 0.00 0.00 0.00 0.00 0.00 0.00 0.00 0.00 0.00 0.00 0.00 0.00 0.00 0.00 0.00 0.00
0.00 0.00 0.00 0.00 0.00 0.00 0.00 0.00 0.00 0.00 0.00 0.00 0.00 0.00 0.00 0.00 0.00 0.00 0.00 0.00 0.00 0.00 0.00 0.00 0.00 0.00 0.00 0.00 0.00 0.00 0.00 0.00
0.00 0.00 0.00 0.00 0.00 0.00 0.00 0.00 0.00 0.00 0.00 0.00 0.00 0.00 0.00 0.00 0.00 0.00 0.00 0.00 0.00 0.00 0.00 0.00 0.00 0.00 0.00 0.00 0.00 0.00 0.00 0.00
0.00 0.00 0.00 0.00 0.00 0.00 0.00 0.00 0.00 0.00 0.00 0.00 0.00 0.00 0.00 0.00 0.00 0.00 0.00 0.00 0.00 0.00 0.00 0.00 0.00 0.00 0.00 0.00 0.00 0.00 0.00 0.00
0.00 0.00 0.00 0.00 0.00 0.00 0.00 0.00 0.00 0.00 0.00 0.00 0.00 0.00 0.00 0.00 0.00 0.00 0.00 0.00 0.00 0.00 0.00 0.00 0.00 0.00 0.00 0.00 0.00 0.00 0.00 0.00
0.00 0.00 0.00 0.00 0.00 0.00 0.00 0.00 0.00 0.00 0.00 0.00 0.00 0.00 0.00 0.00 0.00 0.00 0.00 0.00 0.00 0.00 0.00 0.00 0.00 0.00 0.00 0.00 0.00 0.00 0.00 0.00
0.00 0.00 0.00 0.00 0.00 0.00 0.00 0.00 0.00 0.00 0.00 0.00 0.00 0.00 0.00 0.00 0.00 0.00 0.00 0.00 0.00 0.00 0.00 0.00 0.00 0.00 0.00 0.00 0.00 0.00 0.00 0.00
0.00 0.00 0.00 0.00 0.00 0.00 0.00 0.00 0.00 0.00 0.00 0.00 0.00 0.00 0.00 0.00 0.00 0.02 0.01 0.00 0.00 0.00 0.00 0.00 0.00 0.00 0.00 0.00 0.00 0.00 0.00 0.00
0.00 0.00 0.00 0.00 0.00 0.00 0.00 0.00 0.00 0.01 0.02 0.01 0.00 0.00 0.00 0.01 0.01 0.02 0.02 0.00 0.00 0.00 0.00 0.00 0.00 0.00 0.00 0.00 0.00 0.00 0.00 0.00
0.00 0.00 0.00 0.00 0.00 0.00 0.00 0.00 0.01 0.02 0.03 0.01 0.01 0.00 0.00 0.02 0.02 0.03 0.02 0.00 0.00 0.00 0.00 0.00 0.00 0.00 0.00 0.00 0.00 0.00 0.00 0.00
MSLP
1013.28 1013.68 1013.92 1014.27 1014.59 1014.92 1015.37 1015.82 1016.15 1016.25 1016.26 1016.30 1016.51 1016.84 1017.07 1017.25 1017.49 1017.73 1017.89 1018.01 1018.10 1018.18 1018.23 1018.25 1018.25 1018.22 1018.23 1018.19 1018.19 1018.15 1018.16 1018.06
1013.16 1013.64 1014.03 1014.42 1014.74 1014.94 1015.27 1015.64 1015.94 1016.18 1016.37 1016.54 1016.71 1016.89 1017.09 1017.28 1017.46 1017.66 1017.80 1017.89 1018.04 1018.19 1018.25 1018.27 1018.30 1018.33 1018.30 1018.21 1018.20 1018.22 1018.16 1017.98
1013.21 1013.51 1013.92 1014.33 1014.71 1014.96 1015.26 1015.53 1015.82 1016.08 1016.38 1016.65 1016.94 1017.10 1017.23 1017.36 1017.51 1017.63 1017.79 1017.92 1018.00 1018.09 1018.20 1018.25 1018.28 1018.29 1018.32 1018.19 1018.15 1018.19 1018.07 1017.93
1013.22 1013.41 1013.75 1014.14 1014.50 1014.91 1015.23 1015.52 1015.80 1016.04 1016.30 1016.60 1016.92 1017.17 1017.37 1017.42 1017.50 1017.62 1017.70 1017.79 1017.90 1018.02 1018.13 1018.18 1018.17 1018.23 1018.20 1018.08 1018.07 1018.01 1017.94 1017.83
1012.96 1013.31 1013.68 1014.06 1014.23 1014.73 1015.15 1015.37 1015.59 1015.85 1016.09 1016.38 1016.68 1017.03 1017.31 1017.44 1017.62 1017.67 1017.72 1017.71 1017.80 1017.87 1018.01 1018.16 1018.22 1018.22 1018.13 1018.02 1018.09 1017.99 1017.89 1017.89
1013.05 1013.27 1013.46 1013.93 1014.31 1014.57 1014.90 1015.27 1015.50 1015.61 1015.76 1016.12 1016.54 1016.83 1017.05 1017.24 1017.42 1017.52 1017.66 1017.72 1017.85 1017.93 1018.01 1018.07 1018.12 1018.13 1018.05 1018.06 1018.13 1018.13 1018.11 1018.11
1012.58 1013.13 1013.44 1013.57 1014.08 1014.41 1014.75 1014.97 1015.13 1015.25 1015.53 1015.81 1016.17 1016.52 1016.74 1016.79 1016.88 1017.22 1017.45 1017.59 1017.71 1017.77 1017.81 1017.95 1018.01 1017.99 1018.18 1018.09 1018.35 1018.34 1018.35 1018.34
1011.63 1012.18 1012.76 1013.16 1013.49 1013.86 1014.16 1014.49 1014.76 1015.01 1015.17 1015.39 1015.73 1016.01 1016.36 1016.52 1016.70 1016.90 1017.05 1017.19 1017.42 1017.60 1017.50 1017.73 1017.91 1017.96 1018.47 1018.37 1018.52 1018.49 1018.52 1018.56
1010.52 1010.91 1011.64 1012.25 1012.57 1012.86 1013.24 1013.63 1014.11 1014.43 1014.63 1014.88 1015.20 1015.53 1015.84 1016.19 1016.43 1016.63 1016.64 1016.78 1017.06 1017.29 1017.52 1017.91 1018.21 1018.40 1018.69 1018.77 1018.87 1018.85 1018.83 1018.85
1009.52 1010.03 1010.62 1011.30 1011.79 1012.28 1012.37 1012.67 1013.20 1013.50 1013.85 1014.27 1014.60 1014.87 1015.23 1015.71 1016.14 1016.23 1016.11 1016.41 1016.86 1017.09 1017.67 1018.18 1018.55 1018.71 1019.01 1019.30 1019.40 1019.28 1019.30 1019.30
1008.92 1009.38 1009.60 1010.15 1011.06 1011.74 1012.27 1012.54 1012.65 1012.95 1013.25 1013.42 1013.76 1014.16 1014.55 1014.99 1015.39 1015.65 1015.76 1016.12 1016.75 1017.23 1017.81 1018.16 1018.79 1019.02 1019.27 1019.73 1019.94 1019.92 1019.69 1019.54
1008.13 1008.74 1009.12 1009.77 1010.71 1011.34 1011.91 1012.26 1012.39 1012.38 1012.58 1012.84 1013.17 1013.49 1013.87 1014.32 1014.80 1015.34 1015.70 1016.27 1016.86 1017.30 1017.75 1018.35 1018.74 1019.05 1019.39 1019.91 1020.08 1020.06 1019.89 1019.89
1007.38 1008.11 1008.33 1009.21 1009.82 1010.44 1010.85 1010.80 1011.51 1011.97 1012.19 1012.32 1012.58 1012.89 1013.18 1013.62 1014.17 1014.92 1015.37 1016.02 1016.59 1017.06 1017.79 1018.48 1019.16 1019.28 1019.77 1020.40 1020.52 1020.34 1020.22 1020.15
1006.48 1006.89 1007.58 1007.91 1008.22 1008.60 1009.65 1010.29 1010.70 1011.12 1011.62 1011.75 1011.95 1012.23 1012.61 1012.93 1013.59 1014.40 1014.88 1015.67 1016.39 1016.92 1017.37 1018.40 1019.14 1019.42 1019.91 1020.66 1020.90 1020.79 1020.44 1020.31
1005.00 1005.44 1005.93 1006.46 1007.30 1008.32 1009.18 1010.17 1010.74 1010.95 1010.79 1011.01 1011.23 1011.52 1011.89 1012.35 1012.90 1013.65 1014.42 1014.87 1015.74 1016.28 1016.94 1017.43 1018.62 1019.26 1019.32 1019.69 1020.59 1020.74 1020.84 1020.43
1003.53 1004.30 1004.79 1005.46 1006.38 1007.09 1007.51 1007.67 1008.38 1008.18 1009.12 1010.03 1010.52 1010.98 1011.47 1011.87 1012.35 1012.93 1013.67 1014.27 1015.01 1015.69 1016.29 1016.85 1017.57 1018.73 1019.32 1019.26 1019.35 1019.82 1020.71 1020.93
1002.27 1003.05 1003.94 1004.72 1005.22 1005.46 1006.21 1006.90 1007.19 1008.00 1008.78 1009.50 1010.07 1010.60 1010.97 1011.62 1012.05 1012.48 1013.15 1013.77 1014.39 1015.04 1015.93 1016.51 1016.98 1017.94 1018.43 1019.27 1019.71 1020.00 1020.28 1020.91
1002.99 1003.65 1003.28 1003.48 1004.04 1004.55 1004.95 1005.45 1006.44 1007.38 1007.92 1008.79 1009.62 1010.20 1010.71 1011.11 1011.40 1012.02 1012.54 1013.06 1013.99 1014.75 1015.54 1016.20 1016.80 1017.38 1018.05 1018.48 1019.04 1019.86 1020.42 1020.74
1002.21 1002.45 1002.76 1003.02 1003.48 1003.75 1003.85 1004.29 1005.35 1006.16 1006.94 1007.73 1008.43 1009.44 1010.18 1010.54 1011.12 1011.78 1012.35 1012.82 1013.71 1014.45 1015.35 1016.15 1016.70 1017.40 1017.90 1018.38 1018.68 1019.38 1019.95 1020.47
1001.60 1001.55 1001.72 1002.37 1002.74 1002.75 1003.03 1003.60 1004.22 1005.05 1006.05 1007.06 1007.86 1008.22 1008.97 1010.08 1010.96 1011.74 1012.51 1012.69 1013.50 1014.16 1015.19 1016.09 1016.81 1017.34 1017.84 1018.21 1018.78 1019.29 1019.93 1020.45
Thickness
5755 5750 5747 5744 5741 5738 5733 5728 5725 5724 5724 5724 5723 5721 5719 5718 5716 5714 5713 5712 5711 5710 5710 5709 5709 5709 5708 5708 5708 5707 5707 5707
5755 5750 5746 5743 5739 5737 5733 5729 5726 5725 5723 5721 5720 5719 5718 5717 5716 5714 5712 5712 5711 5709 5708 5708 5707 5707 5706 5706 5706 5704 5705 5706
5753 5750 5747 5743 5739 5736 5732 5729 5726 5724 5722 5719 5717 5716 5715 5715 5713 5713 5711 5710 5709 5708 5707 5706 5705 5704 5703 5703 5702 5701 5702 5702
5752 5750 5747 5744 5740 5736 5732 5728 5725 5723 5721 5719 5716 5714 5712 5712 5711 5710 5709 5708 5707 5706 5705 5704 5703 5702 5701 5700 5700 5699 5698 5699
5751 5749 5744 5741 5740 5735 5732 5728 5725 5723 5721 5718 5715 5712 5710 5709 5708 5707 5706 5706 5705 5704 5702 5700 5698 5698 5697 5697 5695 5695 5695 5693
5747 5746 5744 5739 5736 5734 5731 5727 5724 5723 5721 5718 5714 5712 5710 5708 5706 5705 5704 5702 5701 5700 5699 5697 5695 5694 5693 5692 5689 5690 5690 5688
5748 5743 5740 5738 5734 5731 5728 5726 5724 5723 5721 5718 5714 5711 5709 5707 5707 5703 5701 5699 5697 5696 5695 5694 5691 5690 5688 5687 5684 5684 5683 5682
5756 5750 5743 5737 5735 5731 5729 5726 5723 5721 5720 5717 5713 5711 5708 5706 5704 5702 5700 5698 5695 5692 5692 5690 5688 5686 5682 5681 5679 5679 5677 5675
5762 5759 5752 5743 5739 5736 5731 5728 5724 5721 5720 5718 5713 5710 5707 5705 5702 5700 5699 5697 5693 5690 5687 5684 5682 5679 5676 5674 5673 5672 5670 5668
5766 5762 5758 5751 5744 5737 5735 5731 5727 5724 5720 5717 5714 5711 5708 5704 5700 5698 5696 5694 5689 5686 5682 5677 5674 5671 5667 5665 5663 5663 5661 5659
5769 5764 5761 5757 5748 5739 5732 5727 5726 5723 5719 5717 5714 5710 5708 5705 5701 5698 5696 5692 5686 5681 5677 5673 5667 5664 5661 5656 5653 5651 5650 5649
5774 5768 5764 5757 5748 5740 5732 5727 5724 5722 5720 5717 5713 5710 5707 5703 5699 5695 5692 5686 5680 5676 5672 5666 5661 5658 5654 5648 5644 5643 5643 5641
5777 5768 5766 5758 5750 5742 5736 5734 5727 5721 5718 5715 5712 5709 5706 5702 5697 5692 5688 5682 5677 5673 5666 5659 5652 5649 5644 5638 5635 5635 5634 5633
5776 5773 5765 5761 5759 5753 5742 5734 5730 5724 5717 5713 5710 5707 5704 5701 5697 5690 5686 5678 5672 5667 5663 5653 5645 5641 5636 5629 5627 5626 5625 5625
5776 5775 5772 5767 5760 5750 5739 5728 5721 5718 5717 5713 5710 5705 5702 5699 5695 5689 5683 5678 5670 5665 5659 5656 5644 5637 5635 5630 5617 5620 5612 5615
5782 5774 5771 5767 5759 5752 5745 5741 5732 5735 5725 5715 5709 5704 5699 5695 5692 5687 5681 5676 5669 5663 5657 5652 5646 5636 5628 5627 5624 5619 5610 5607
5784 5777 5771 5764 5759 5757 5749 5740 5737 5729 5720 5712 5706 5699 5695 5689 5686 5682 5677 5673 5667 5661 5652 5646 5642 5634 5628 5619 5614 5607 5602 5596
5764 5759 5763 5762 5759 5755 5751 5745 5734 5722 5718 5708 5700 5694 5688 5685 5683 5678 5673 5670 5662 5655 5647 5641 5635 5629 5622 5618 5611 5601 5593 5588
5759 5759 5757 5757 5753 5751 5752 5747 5734 5725 5717 5709 5702 5692 5685 5680 5674 5669 5666 5662 5654 5647 5638 5631 5626 5619 5613 5608 5603 5595 5588 5580
5752 5755 5755 5752 5750 5750 5748 5743 5736 5727 5716 5705 5698 5693 5686 5675 5666 5660 5654 5653 5645 5638 5629 5621 5614 5608 5603 5599 5591 5585 5578 5570